This is the latest recevied weather packets stored in our database for station/object NO9B. If no packets are shown the sender has not sent any weather packets the latest 10 day(s).
| Time | Temp. | Humidity | Pressure | Rain* | Wind** | Luminosity | Snow |
|---|---|---|---|---|---|---|---|
| 1788188593 | 25.56° C | 80% | 1014.5 hPa | 0 mm | - | 84 W/m² | - |
| 1788188292 | 25.56° C | 80% | 1014.4 hPa | 0 mm | - | 91 W/m² | - |
| 1788187989 | 25° C | 80% | 1014.1 hPa | 0 mm | - | 108 W/m² | - |
| 1788187684 | 25° C | 82% | 1014.3 hPa | 0 mm | - | 85 W/m² | - |
| 1788187381 | 25° C | 82% | 1014.1 hPa | 0 mm | - | 63 W/m² | - |
| 1788187080 | 25° C | 83% | 1014.1 hPa | 0 mm | - | 64 W/m² | - |
| 1788186775 | 24.44° C | 83% | 1014.1 hPa | 0 mm | - | 95 W/m² | - |
| 1788186470 | 24.44° C | 82% | 1014.3 hPa | 0 mm | - | 84 W/m² | - |
| 1788186166 | 23.89° C | 84% | 1014.4 hPa | 0 mm | - | 77 W/m² | - |
| 1788185865 | 23.89° C | 86% | 1014.4 hPa | 0 mm | - | 80 W/m² | - |
| 1788185566 | 23.89° C | 86% | 1014 hPa | 0 mm | - | 60 W/m² | - |
| 1788185260 | 23.89° C | 86% | 1014.3 hPa | 0 mm | - | 65 W/m² | - |
| 1788184955 | 23.89° C | 85% | 1014.3 hPa | 0 mm | - | 65 W/m² | - |
| 1788184652 | 23.89° C | 85% | 1014.5 hPa | 0 mm | - | 73 W/m² | - |
| 1788184349 | 23.89° C | 84% | 1014.3 hPa | 0 mm | - | 52 W/m² | - |
| 1788184044 | 23.33° C | 85% | 1014.3 hPa | 0 mm | - | 58 W/m² | - |
| 1788183741 | 23.33° C | 84% | 1014.1 hPa | 0 mm | - | 51 W/m² | - |
| 1788183439 | 23.33° C | 86% | 1014.4 hPa | 0 mm | - | 58 W/m² | - |
| 1788183133 | 23.33° C | 86% | 1014.3 hPa | 0 mm | - | 48 W/m² | - |
| 1788182829 | 22.78° C | 87% | 1014.1 hPa | 0 mm | - | 35 W/m² | - |
| 1788182529 | 22.78° C | 88% | 1014 hPa | 0 mm | - | 32 W/m² | - |
| 1788182229 | 22.78° C | 88% | 1014.1 hPa | 0 mm | - | 30 W/m² | - |
| 1788181926 | 22.78° C | 88% | 1014.1 hPa | 0 mm | - | 31 W/m² | - |
| 1788181620 | 22.78° C | 89% | 1014.3 hPa | 0 mm | - | 46 W/m² | - |
| 1788181316 | 22.78° C | 89% | 1013.9 hPa | 0 mm | - | 36 W/m² | - |
* Rain latest hour (hover to see other rain measurements)
** Current wind speed in m/s (hover to see current wind gust speed)